[[{"header":{"parameterUnit":"m.s-1","parameterCategory":1,"la1":30.2991,"la2":30.254,"lo1":-89.0895,"lo2":-89.0444,"dy":0.0017,"dx":0.0017,"nx":28,"ny":28,"refTime":"2023-10-24T09:00:00:Z","depth":0,"parameterNumber":2,"parameterNumberName":"U-component_of_WINDS"},"data":[0,0,0,0,0,0,0,0,0,0,0,0,0,0,0,0,0,0,0,0,0,0,0,0,0,0,0,0,0,0,0,0,0,0,0,0,0,0,0,0,0,0,0,0,0,0,0,0,0,0,0,0,0,0,0,0,0,0,-7.3894,-7.3896,0,-7.4017,-7.4018,-7.4019,-7.3958,-7.3955,-7.3952,-7.3949,-7.4068,-7.4074,-7.408,0,0,0,0,0,0,0,0,0,0,0,0,0,-7.3604,-7.361,-7.3894,-7.3896,-7.3897,-7.4016,-7.4018,-7.402,-7.3958,-7.3955,-7.3951,-7.3947,-7.4066,-7.4073,-7.408,0,0,0,0,0,0,0,0,0,0,0,0,0,-7.3729,-7.3612,-7.3894,-7.3881,-7.3881,-7.4016,-7.4018,-7.402,-7.3959,-7.3954,-7.395,-7.3945,-7.4063,-7.4072,-7.4081,-7.4234,0,0,-7.411,-7.4114,0,0,0,0,0,0,0,0,-7.3722,-7.3739,-7.3881,-7.3882,-7.3883,-7.3967,-7.396,-7.4092,-7.396,-7.3929,-7.3948,-7.3943,-7.4038,-7.4049,-7.4082,-7.424,-7.4245,-7.411,-7.4116,-7.412,-7.4123,0,0,0,0,0,0,0,-7.3713,-7.3734,-7.3942,-7.3884,-7.3884,-7.3868,-7.3881,-7.3984,-7.4009,-7.3932,-7.3928,-7.3943,-7.4037,-7.4073,-7.4084,-7.4246,-7.411,-7.4118,-7.4124,-7.4128,-7.4538,-7.4543,0,0,0,0,0,0,-7.3706,-7.3727,-7.3938,-7.3946,-7.3789,-7.3878,-7.3891,-7.3945,-7.4007,-7.4013,-7.3947,-7.394,-7.406,-7.4074,-7.4088,-7.4272,-7.412,-7.4129,-7.4134,-7.4533,-7.4539,-7.4545,0,0,0,0,0,0,-7.37,-7.3725,-7.3933,-7.3836,-7.3861,-7.3888,-7.3948,-7.395,-7.3986,-7.4019,-7.4023,-7.398,-7.4057,-7.4075,-7.4199,-7.4275,-7.4133,-7.4141,-7.4526,-7.4535,-7.4542,-7.4639,0,0,0,0,0,0,-7.3692,-7.3723,-7.3782,-7.3838,-7.3867,-7.4043,-7.3953,-7.3956,-7.4003,-7.3994,-7.4051,-7.4056,-7.4054,-7.4186,-7.4208,-7.4285,-7.4148,-7.4519,-7.453,-7.4539,-7.4629,-7.465,-7.4667,0,0,0,0,0,-7.3682,-7.3802,-7.3785,-7.3811,-7.394,-7.4048,-7.4064,-7.4062,-7.4009,-7.4068,-7.409,-7.4054,-7.4264,-7.4199,-7.4224,-7.4304,-7.4515,-7.4527,-7.4539,-7.4621,-7.4646,-7.4667,0,0,0,0,0,0,-7.3751,-7.3809,-7.379,-7.3933,-7.3987,-7.4037,-7.411,-7.4088,-7.4155,-7.4144,-7.4138,-7.4151,-7.428,-7.4305,-7.4231,-7.4457,-7.4381,-7.4399,-7.4435,-7.4459,-7.4477,-7.4467,-7.4156,0,0,0,0,0,-7.3784,-7.3868,-7.3913,-7.4035,-7.4063,-7.4083,-7.4129,-7.4124,-7.4178,-7.4199,-7.423,-7.4282,-7.4361,-7.4412,-7.4485,-7.4635,-7.4646,-7.4703,-7.4721,-7.4737,-7.4751,-7.4833,-7.4859,-7.4585,-7.4585,-7.4584,0,0,-7.385,-7.3893,-7.3945,-7.405,-7.409,-7.4177,-7.4102,-7.4195,-7.4259,-7.4212,-7.4332,-7.4358,-7.4415,-7.4553,-7.4615,-7.4578,-7.483,-7.4752,-7.4764,-7.477,-7.4848,-7.4874,-7.4897,-7.4593,-7.4591,-7.459,0,0,-7.4015,-7.4057,-7.4163,-7.4207,-7.4271,-7.4284,-7.431,-7.4366,-7.4382,-7.4503,-7.4471,-7.4546,-7.468,-7.4724,-7.4763,-7.4952,-7.4921,-7.4977,-7.5073,-7.5153,-7.5175,-7.5194,-7.5261,-7.5285,-7.4991,-7.4992,-7.4992,0,-7.4089,-7.4219,-7.4219,-7.4317,-7.4364,-7.4332,-7.4439,-7.4481,-7.4565,-7.4598,-7.4556,-7.4727,-7.4764,-7.4912,-7.4958,-7.4992,-7.5021,-7.4968,-7.5172,-7.5191,-7.5209,-7.5272,-7.5298,-7.4998,-7.4997,-7.4996,-7.4996,0,-7.4306,-7.4397,-7.4476,-7.4561,-7.4618,-7.472,-7.4736,-7.4793,-7.4785,-7.4803,-7.4927,-7.4972,-7.5054,-7.509,-7.5081,-7.5238,-7.5213,-7.5173,-7.5095,-7.5241,-7.5301,-7.5325,-7.5007,-7.5004,-7.5003,-7.5001,0,0,-7.4511,-7.4602,-7.463,-7.4669,-7.4741,-7.481,-7.4913,-7.4997,-7.5046,-7.5107,-7.5191,-7.5309,-7.5273,-7.5318,-7.5315,-7.5386,-7.5533,-7.5337,-7.5338,-7.537,-7.5709,-7.5737,-7.5765,-7.5515,-7.552,-7.5524,-7.5703,0,-7.468,-7.486,-7.4866,-7.503,-7.5114,-7.5088,-7.5177,-7.523,-7.5251,-7.5325,-7.5348,-7.5431,-7.5378,-7.5406,-7.5475,-7.55,-7.56,-7.5488,-7.5592,-7.5595,-7.5575,-7.5796,-7.5825,-7.5992,-7.5727,-7.5731,-7.5733,0,-7.4899,-7.4971,-7.5144,-7.5206,-7.5242,-7.5322,-7.5401,-7.5473,-7.5534,-7.5545,-7.5599,-7.5587,-7.5691,-7.5615,-7.5758,-7.5681,-7.5725,-7.5745,-7.5751,-7.5757,-7.567,-7.5806,-7.6045,-7.6069,-7.577,-7.5767,-7.5765,0,-7.503,-7.517,-7.5292,-7.5327,-7.5403,-7.5461,-7.5495,-7.5551,-7.5603,-7.5673,-7.5706,-7.5787,-7.583,-7.5892,-7.5902,-7.5846,-7.6046,-7.597,-7.6056,-7.6056,-7.6095,-7.6092,-7.6342,-7.6129,-7.6129,-7.6129,-7.6128,0,-7.5215,-7.5322,-7.5352,-7.5427,-7.5546,-7.5554,-7.5671,-7.5701,-7.5753,-7.5833,-7.5816,-7.589,-7.5901,-7.5978,-7.5987,-7.6105,-7.6125,-7.6135,-7.6135,-7.6135,-7.6133,-7.616,-7.6148,-7.6135,-7.6134,-7.6132,-7.6131,0,-7.5379,-7.5404,-7.5535,-7.56,-7.5619,-7.5703,-7.5758,-7.5829,-7.5852,-7.5953,-7.5977,-7.6011,-7.6102,-7.612,-7.6227,-7.6233,-7.6372,-7.6362,-7.6352,-7.635,-7.6434,-7.6425,-7.6708,-7.6745,-7.651,-7.6513,-7.6515,0,-7.5494,-7.5576,-7.5651,-7.5704,-7.5742,-7.5829,-7.5883,-7.5895,-7.5952,-7.6031,-7.6093,-7.6184,-7.6255,-7.6403,-7.6436,-7.6518,-7.6508,-7.6602,-7.652,-7.6518,-7.6508,-7.6501,-7.6509,-7.6616,-7.6619,-7.6621,-7.6622,0,-7.5694,-7.5704,-7.5784,-7.587,-7.5935,-7.6003,-7.6066,-7.6111,-7.6133,-7.6198,-7.6292,-7.6349,-7.6461,-7.6551,-7.6634,-7.6668,-7.6649,-7.665,-7.6673,-7.6671,-7.6661,-7.6666,-7.6392,-7.6641,-7.6639,-7.6638,-7.6637,-7.6636,-7.5835,-7.5908,-7.5973,-7.6063,-7.6114,-7.6176,-7.6247,-7.6281,-7.636,-7.6454,-7.6457,-7.6561,-7.6623,-7.6734,-7.6775,-7.6855,-7.6825,-7.686,-7.6868,-7.6876,-7.6883,-7.6653,-7.6871,-7.687,-7.687,-7.6869,-7.6869,0,-7.6033,-7.6076,-7.6159,-7.6251,-7.6323,-7.6304,-7.6375,-7.6435,-7.6528,-7.6589,-7.6662,-7.6773,-7.6861,-7.6904,-7.6991,-7.7048,-7.7041,-7.707,-7.7064,-7.7072,-7.6905,-7.6875,-7.7074,-7.7074,-7.7074,-7.7074,-7.7074,-7.7074,-7.6144,-7.6266,-7.6285,-7.6433,-7.6474,-7.6578,-7.662,-7.6677,-7.6726,-7.6851,-7.6926,-7.6955,-7.7009,-7.7101,-7.7182,-7.7192,-7.7224,-7.7257,-7.7262,-7.7105,-7.7084,-7.7064,-7.7035,-7.7264,-7.7264,-7.7422,-7.7424,-7.7425]},{"header":{"parameterUnit":"m.s-1","parameterCategory":1,"la1":30.2991,"la2":30.254,"lo1":-89.0895,"lo2":-89.0444,"dy":0.0017,"dx":0.0017,"nx":28,"ny":28,"refTime":"2023-10-24T09:00:00:Z","depth":0,"parameterNumber":3,"parameterNumberName":"V-component_of_WINDS"},"data":[0,0,0,0,0,0,0,0,0,0,0,0,0,0,0,0,0,0,0,0,0,0,0,0,0,0,0,0,0,0,0,0,0,0,0,0,0,0,0,0,0,0,0,0,0,0,0,0,0,0,0,0,0,0,0,0,0,0,1.3299,1.3299,0,1.329,1.329,1.3289,1.3293,1.3293,1.3293,1.3293,1.3281,1.328,1.328,0,0,0,0,0,0,0,0,0,0,0,0,0,1.3317,1.3317,1.3299,1.3299,1.3298,1.329,1.329,1.3289,1.3293,1.3293,1.3293,1.3294,1.3281,1.328,1.328,0,0,0,0,0,0,0,0,0,0,0,0,0,1.3309,1.3317,1.3299,1.3299,1.3299,1.329,1.329,1.3289,1.3293,1.3293,1.3293,1.3294,1.3281,1.328,1.3279,1.3268,0,0,1.3277,1.3277,0,0,0,0,0,0,0,0,1.3309,1.3308,1.3299,1.3299,1.3299,1.3293,1.3291,1.3282,1.3293,1.3295,1.3293,1.3294,1.3284,1.3283,1.3281,1.3267,1.3267,1.3277,1.3276,1.3276,1.3276,0,0,0,0,0,0,0,1.331,1.3308,1.3295,1.3299,1.3299,1.3299,1.3298,1.329,1.3288,1.3295,1.3295,1.3294,1.3284,1.3281,1.328,1.3267,1.3277,1.3276,1.3276,1.3275,1.3246,1.3246,0,0,0,0,0,0,1.3311,1.3309,1.3295,1.3295,1.3305,1.3299,1.3298,1.3294,1.3288,1.3287,1.3294,1.3294,1.3283,1.3281,1.328,1.3268,1.3276,1.3275,1.3275,1.3246,1.3246,1.3246,0,0,0,0,0,0,1.3311,1.3309,1.3296,1.3302,1.33,1.3298,1.3294,1.3294,1.3291,1.3287,1.3287,1.3292,1.3283,1.3281,1.3272,1.3267,1.3275,1.3274,1.3247,1.3246,1.3246,1.3242,0,0,0,0,0,0,1.3312,1.331,1.3305,1.3302,1.33,1.3288,1.3294,1.3294,1.329,1.3291,1.3285,1.3284,1.3283,1.3273,1.3271,1.3266,1.3274,1.3247,1.3247,1.3246,1.3242,1.3241,1.3241,0,0,0,0,0,1.3312,1.3303,1.3305,1.3303,1.3295,1.3288,1.3286,1.3286,1.329,1.3286,1.3284,1.3284,1.3268,1.3272,1.327,1.3265,1.3247,1.3247,1.3246,1.3243,1.3242,1.3241,0,0,0,0,0,0,1.3304,1.3303,1.3305,1.3294,1.3292,1.3288,1.3283,1.3285,1.3279,1.328,1.3279,1.3278,1.3269,1.3266,1.327,1.3255,1.3258,1.3257,1.3257,1.3255,1.3254,1.3255,1.3273,0,0,0,0,0,1.3301,1.3297,1.3295,1.3286,1.3285,1.3284,1.3281,1.3282,1.3278,1.3276,1.3273,1.3269,1.3263,1.3259,1.3253,1.3243,1.3242,1.3238,1.3237,1.3236,1.3235,1.3231,1.323,1.3244,1.3244,1.3244,0,0,1.3295,1.3294,1.329,1.3285,1.3283,1.3278,1.3283,1.3277,1.3273,1.3275,1.3267,1.3265,1.326,1.325,1.3246,1.3248,1.3232,1.3236,1.3235,1.3234,1.323,1.3229,1.3228,1.3243,1.3243,1.3243,0,0,1.3281,1.3279,1.3273,1.3271,1.3269,1.3269,1.3268,1.3265,1.3264,1.3256,1.3259,1.3254,1.3243,1.3241,1.3238,1.3226,1.3227,1.3224,1.3219,1.3215,1.3214,1.3213,1.321,1.3209,1.3223,1.3223,1.3223,0,1.3273,1.3266,1.3269,1.3264,1.3262,1.3266,1.3259,1.3257,1.3252,1.325,1.3253,1.3242,1.3239,1.323,1.3227,1.3224,1.3223,1.3225,1.3214,1.3213,1.3212,1.3209,1.3208,1.3223,1.3223,1.3223,1.3223,0,1.3258,1.3253,1.3248,1.3246,1.3243,1.3237,1.3239,1.3236,1.3237,1.3237,1.323,1.3227,1.3222,1.322,1.322,1.3211,1.3213,1.3215,1.3218,1.3211,1.3208,1.3207,1.3223,1.3223,1.3223,1.3223,0,0,1.3236,1.3238,1.3236,1.3236,1.3235,1.3231,1.3226,1.3223,1.3221,1.3218,1.3214,1.3207,1.3209,1.3206,1.3207,1.3203,1.3196,1.3206,1.3206,1.3205,1.3188,1.3186,1.3185,1.3197,1.3197,1.3197,1.3188,0,1.3223,1.3215,1.3219,1.321,1.3207,1.3212,1.3208,1.3207,1.3207,1.3204,1.3204,1.3199,1.3203,1.3202,1.3198,1.3198,1.3193,1.3198,1.3193,1.3193,1.3194,1.3183,1.3181,1.3173,1.3187,1.3187,1.3187,0,1.3206,1.3205,1.3197,1.3199,1.3198,1.3194,1.3193,1.319,1.3189,1.319,1.3188,1.319,1.3185,1.319,1.3184,1.3187,1.3186,1.3185,1.3185,1.3184,1.3189,1.3183,1.317,1.3169,1.3185,1.3185,1.3185,0,1.3192,1.3189,1.3184,1.3184,1.3186,1.3184,1.3184,1.3184,1.3183,1.3181,1.3181,1.3178,1.3176,1.3174,1.3176,1.3179,1.317,1.3174,1.317,1.317,1.3167,1.3167,1.3155,1.3166,1.3166,1.3166,1.3166,0,1.3177,1.3172,1.3179,1.3176,1.3171,1.3175,1.317,1.3171,1.3172,1.3169,1.3173,1.317,1.3172,1.317,1.3171,1.3166,1.3165,1.3166,1.3166,1.3166,1.3166,1.3164,1.3165,1.3166,1.3166,1.3166,1.3166,0,1.316,1.3165,1.316,1.3164,1.3165,1.3161,1.3164,1.3161,1.3163,1.316,1.316,1.3162,1.316,1.3162,1.3158,1.3159,1.3154,1.3154,1.3154,1.3155,1.3151,1.3151,1.3137,1.3136,1.3148,1.3147,1.3147,0,1.315,1.3147,1.3152,1.3151,1.3152,1.3151,1.315,1.3155,1.3154,1.3155,1.3153,1.3151,1.315,1.3146,1.3147,1.3146,1.3147,1.3142,1.3146,1.3146,1.3147,1.3148,1.3148,1.3141,1.314,1.314,1.314,0,1.3133,1.3136,1.3136,1.3137,1.3137,1.3138,1.3139,1.3138,1.3143,1.3142,1.3141,1.314,1.3139,1.3137,1.3137,1.3137,1.3139,1.3139,1.3138,1.3138,1.3138,1.3139,1.3152,1.3139,1.3139,1.3139,1.3139,1.314,1.3119,1.3118,1.3122,1.3122,1.3124,1.3125,1.3124,1.3127,1.3127,1.3127,1.313,1.3128,1.313,1.3129,1.3129,1.3128,1.313,1.3128,1.3128,1.3128,1.3128,1.3139,1.3128,1.3128,1.3128,1.3128,1.3128,0,1.3103,1.3106,1.3107,1.3109,1.311,1.3115,1.3117,1.3117,1.3116,1.3118,1.3118,1.3117,1.3117,1.3119,1.3119,1.3117,1.3119,1.3117,1.3117,1.3118,1.3125,1.3127,1.3116,1.3116,1.3116,1.3116,1.3116,1.3116,1.3094,1.3092,1.3096,1.3096,1.3099,1.3099,1.31,1.3102,1.3104,1.3104,1.3104,1.3106,1.3108,1.3109,1.3109,1.3109,1.3109,1.3107,1.3108,1.3116,1.3117,1.3118,1.3119,1.3107,1.3107,1.3101,1.3101,1.3101]}]]